QPF
0.01 0.01 0.01 0.01 0.02 0.07 0.12 0.11 0.06 0.04 0.03 0.03 0.02 0.02 0.03 0.04 0.03 0.03 0.03 0.05 0.06 0.05 0.05 0.04 0.05 0.06 0.07 0.09 0.11 0.11 0.11 0.11 0.12 0.12 0.11 0.12 0.10 0.09 0.08 0.09 0.08 0.06 0.06
0.03 0.02 0.01 0.01 0.02 0.03 0.05 0.08 0.07 0.04 0.02 0.02 0.02 0.03 0.04 0.04 0.04 0.04 0.05 0.02 0.02 0.04 0.04 0.04 0.05 0.06 0.06 0.07 0.09 0.09 0.10 0.10 0.11 0.11 0.11 0.11 0.13 0.12 0.09 0.08 0.07 0.07 0.08
0.03 0.04 0.02 0.02 0.02 0.02 0.03 0.04 0.04 0.03 0.02 0.03 0.03 0.03 0.03 0.02 0.03 0.03 0.04 0.02 0.02 0.03 0.04 0.04 0.04 0.05 0.05 0.07 0.06 0.07 0.07 0.08 0.10 0.10 0.10 0.09 0.10 0.11 0.11 0.10 0.09 0.10 0.11
0.04 0.04 0.02 0.01 0.01 0.01 0.02 0.03 0.03 0.03 0.02 0.03 0.03 0.04 0.05 0.04 0.04 0.05 0.04 0.04 0.02 0.02 0.03 0.03 0.03 0.05 0.06 0.07 0.07 0.09 0.08 0.08 0.08 0.08 0.06 0.07 0.07 0.08 0.09 0.09 0.10 0.10 0.10
0.04 0.03 0.02 0.01 0.00 0.01 0.01 0.02 0.03 0.03 0.03 0.03 0.03 0.04 0.05 0.04 0.04 0.05 0.05 0.05 0.04 0.02 0.02 0.03 0.04 0.03 0.05 0.05 0.05 0.06 0.07 0.07 0.08 0.08 0.07 0.07 0.08 0.08 0.09 0.09 0.07 0.07 0.06
0.05 0.03 0.01 0.00 0.00 0.00 0.01 0.01 0.01 0.02 0.02 0.03 0.04 0.04 0.05 0.05 0.05 0.05 0.05 0.05 0.05 0.04 0.02 0.01 0.03 0.03 0.05 0.05 0.06 0.06 0.08 0.08 0.08 0.08 0.08 0.08 0.08 0.07 0.07 0.07 0.07 0.07 0.06
0.05 0.03 0.01 0.01 0.01 0.01 0.01 0.01 0.02 0.03 0.03 0.03 0.03 0.04 0.05 0.06 0.06 0.05 0.05 0.05 0.05 0.05 0.04 0.03 0.03 0.04 0.05 0.05 0.06 0.07 0.08 0.08 0.09 0.09 0.09 0.08 0.07 0.07 0.06 0.07 0.08 0.08 0.08
0.04 0.02 0.01 0.02 0.02 0.02 0.02 0.02 0.03 0.03 0.03 0.03 0.03 0.04 0.05 0.05 0.06 0.06 0.05 0.05 0.05 0.04 0.04 0.04 0.03 0.04 0.04 0.04 0.06 0.07 0.08 0.09 0.09 0.07 0.07 0.08 0.07 0.06 0.06 0.07 0.08 0.09 0.09
0.02 0.03 0.02 0.02 0.02 0.02 0.02 0.03 0.03 0.03 0.03 0.04 0.04 0.04 0.05 0.05 0.05 0.05 0.05 0.05 0.04 0.03 0.03 0.03 0.03 0.04 0.04 0.05 0.06 0.07 0.07 0.07 0.08 0.07 0.07 0.09 0.09 0.08 0.07 0.06 0.07 0.09 0.09
0.01 0.02 0.02 0.01 0.01 0.01 0.01 0.02 0.02 0.03 0.04 0.03 0.03 0.04 0.05 0.05 0.05 0.05 0.05 0.04 0.03 0.03 0.03 0.03 0.02 0.02 0.02 0.03 0.05 0.05 0.05 0.06 0.06 0.06 0.06 0.07 0.07 0.08 0.07 0.06 0.06 0.07 0.08
0.01 0.01 0.02 0.02 0.01 0.01 0.01 0.02 0.03 0.03 0.03 0.04 0.04 0.04 0.05 0.04 0.05 0.05 0.05 0.04 0.03 0.03 0.02 0.02 0.03 0.03 0.02 0.03 0.03 0.03 0.03 0.05 0.05 0.05 0.06 0.06 0.06 0.07 0.06 0.05 0.05 0.06 0.07
0.00 0.01 0.01 0.01 0.00 0.01 0.01 0.01 0.02 0.03 0.03 0.03 0.04 0.03 0.04 0.04 0.04 0.04 0.05 0.05 0.04 0.04 0.03 0.02 0.02 0.02 0.02 0.03 0.03 0.03 0.04 0.04 0.04 0.04 0.05 0.05 0.05 0.06 0.05 0.05 0.05 0.05 0.06
0.00 0.01 0.01 0.01 0.01 0.02 0.02 0.02 0.02 0.03 0.03 0.04 0.04 0.04 0.04 0.04 0.04 0.04 0.04 0.04 0.04 0.05 0.04 0.03 0.02 0.02 0.02 0.03 0.03 0.04 0.04 0.05 0.04 0.04 0.04 0.04 0.04 0.04 0.04 0.05 0.04 0.03 0.04
0.00 0.00 0.01 0.03 0.02 0.04 0.04 0.03 0.02 0.03 0.04 0.04 0.03 0.03 0.04 0.05 0.05 0.04 0.03 0.04 0.05 0.06 0.05 0.05 0.03 0.02 0.01 0.02 0.03 0.04 0.03 0.03 0.03 0.03 0.03 0.03 0.04 0.04 0.04 0.05 0.05 0.05 0.05
0.00 0.00 0.02 0.04 0.04 0.04 0.04 0.03 0.03 0.02 0.03 0.04 0.05 0.05 0.04 0.04 0.04 0.05 0.04 0.04 0.04 0.05 0.05 0.05 0.05 0.04 0.02 0.02 0.02 0.03 0.03 0.03 0.03 0.04 0.03 0.03 0.04 0.05 0.04 0.04 0.05 0.06 0.06
0.00 0.01 0.01 0.01 0.02 0.04 0.03 0.04 0.05 0.04 0.05 0.05 0.05 0.05 0.04 0.04 0.05 0.05 0.05 0.03 0.03 0.03 0.03 0.05 0.06 0.05 0.03 0.02 0.01 0.02 0.03 0.05 0.05 0.04 0.05 0.05 0.05 0.04 0.03 0.03 0.04 0.06 0.05
0.02 0.02 0.01 0.01 0.01 0.03 0.07 0.05 0.04 0.04 0.04 0.05 0.06 0.06 0.05 0.04 0.06 0.05 0.04 0.04 0.04 0.03 0.03 0.03 0.04 0.04 0.05 0.03 0.01 0.01 0.02 0.03 0.05 0.05 0.05 0.04 0.04 0.04 0.03 0.03 0.03 0.04 0.04
0.01 0.02 0.02 0.01 0.01 0.04 0.10 0.10 0.07 0.06 0.06 0.06 0.06 0.06 0.05 0.05 0.06 0.06 0.06 0.05 0.04 0.03 0.03 0.03 0.03 0.04 0.04 0.03 0.01 0.01 0.02 0.03 0.04 0.04 0.04 0.04 0.05 0.05 0.05 0.05 0.05 0.05 0.04
0.02 0.02 0.02 0.02 0.02 0.02 0.04 0.09 0.10 0.11 0.11 0.08 0.07 0.07 0.06 0.06 0.06 0.07 0.07 0.07 0.05 0.04 0.04 0.05 0.05 0.05 0.05 0.02 0.01 0.01 0.02 0.03 0.02 0.03 0.03 0.03 0.04 0.03 0.03 0.04 0.05 0.06 0.05
0.02 0.03 0.03 0.03 0.03 0.02 0.03 0.05 0.08 0.11 0.12 0.11 0.10 0.07 0.07 0.06 0.06 0.06 0.07 0.07 0.07 0.07 0.06 0.05 0.06 0.07 0.06 0.04 0.02 0.01 0.03 0.04 0.04 0.04 0.03 0.03 0.03 0.02 0.03 0.04 0.05 0.04 0.05
0.03 0.04 0.05 0.05 0.04 0.04 0.04 0.05 0.05 0.08 0.10 0.11 0.09 0.08 0.07 0.06 0.06 0.07 0.09 0.09 0.09 0.08 0.07 0.07 0.06 0.07 0.07 0.06 0.03 0.02 0.03 0.05 0.06 0.05 0.06 0.05 0.03 0.02 0.02 0.04 0.04 0.04 0.04
0.04 0.05 0.05 0.05 0.05 0.05 0.05 0.04 0.03 0.04 0.06 0.06 0.07 0.09 0.09 0.09 0.09 0.09 0.10 0.12 0.13 0.11 0.09 0.08 0.08 0.09 0.08 0.05 0.04 0.03 0.02 0.03 0.04 0.05 0.06 0.05 0.03 0.03 0.03 0.04 0.04 0.03 0.03
0.04 0.04 0.05 0.06 0.06 0.05 0.05 0.06 0.06 0.05 0.05 0.05 0.06 0.10 0.12 0.12 0.12 0.11 0.09 0.08 0.11 0.13 0.12 0.09 0.09 0.09 0.09 0.06 0.04 0.03 0.04 0.04 0.03 0.03 0.04 0.04 0.04 0.03 0.04 0.04 0.03 0.03 0.02
0.04 0.04 0.05 0.05 0.06 0.06 0.06 0.06 0.06 0.05 0.04 0.04 0.06 0.08 0.11 0.10 0.08 0.07 0.07 0.06 0.07 0.08 0.09 0.10 0.10 0.09 0.08 0.05 0.05 0.05 0.04 0.04 0.03 0.02 0.02 0.02 0.02 0.02 0.03 0.02 0.03 0.03 0.03
0.05 0.05 0.05 0.05 0.07 0.07 0.07 0.07 0.05 0.04 0.04 0.04 0.05 0.07 0.07 0.06 0.06 0.04 0.04 0.04 0.03 0.03 0.04 0.05 0.05 0.06 0.06 0.04 0.05 0.06 0.06 0.06 0.05 0.04 0.03 0.02 0.01 0.01 0.01 0.01 0.02 0.03 0.04
0.04 0.05 0.07 0.06 0.05 0.06 0.06 0.07 0.06 0.05 0.05 0.05 0.05 0.07 0.05 0.03 0.03 0.03 0.02 0.02 0.01 0.02 0.02 0.02 0.02 0.02 0.03 0.03 0.03 0.03 0.03 0.05 0.06 0.07 0.06 0.05 0.03 0.02 0.03 0.03 0.03 0.03 0.04
MSLP
1000.29 1000.52 1000.83 1001.24 1001.74 1002.32 1002.98 1003.72 1004.49 1005.27 1006.00 1006.65 1007.18 1007.59 1007.87 1008.05 1008.18 1008.30 1008.45 1008.66 1008.94 1009.28 1009.65 1010.03 1010.39 1010.71 1010.99 1011.23 1011.46 1011.68 1011.90 1012.14 1012.39 1012.62 1012.82 1012.98 1013.09 1013.15 1013.19 1013.23 1013.31 1013.45 1013.65
1000.19 1000.41 1000.71 1001.08 1001.54 1002.09 1002.73 1003.46 1004.25 1005.06 1005.84 1006.55 1007.13 1007.57 1007.87 1008.04 1008.15 1008.23 1008.34 1008.51 1008.75 1009.07 1009.44 1009.83 1010.21 1010.55 1010.84 1011.09 1011.31 1011.52 1011.73 1011.96 1012.21 1012.45 1012.68 1012.87 1013.02 1013.13 1013.21 1013.27 1013.36 1013.49 1013.67
1000.33 1000.53 1000.79 1001.12 1001.52 1002.00 1002.57 1003.25 1004.01 1004.80 1005.60 1006.32 1006.93 1007.40 1007.72 1007.91 1008.02 1008.10 1008.20 1008.36 1008.61 1008.93 1009.32 1009.73 1010.12 1010.48 1010.78 1011.02 1011.23 1011.43 1011.63 1011.85 1012.10 1012.36 1012.61 1012.85 1013.05 1013.20 1013.32 1013.42 1013.52 1013.63 1013.79
1000.82 1000.99 1001.21 1001.47 1001.78 1002.16 1002.63 1003.20 1003.87 1004.59 1005.33 1006.03 1006.63 1007.11 1007.45 1007.66 1007.79 1007.90 1008.03 1008.22 1008.50 1008.85 1009.26 1009.70 1010.11 1010.48 1010.79 1011.03 1011.23 1011.41 1011.59 1011.80 1012.04 1012.32 1012.60 1012.88 1013.12 1013.33 1013.49 1013.62 1013.72 1013.82 1013.94
1001.73 1001.87 1002.04 1002.21 1002.41 1002.66 1002.99 1003.41 1003.93 1004.53 1005.16 1005.77 1006.32 1006.76 1007.10 1007.33 1007.50 1007.65 1007.83 1008.07 1008.39 1008.78 1009.23 1009.69 1010.13 1010.50 1010.81 1011.05 1011.23 1011.39 1011.56 1011.76 1012.00 1012.28 1012.59 1012.90 1013.18 1013.43 1013.63 1013.78 1013.88 1013.96 1014.03
1003.07 1003.18 1003.27 1003.36 1003.44 1003.54 1003.70 1003.94 1004.28 1004.69 1005.16 1005.64 1006.09 1006.47 1006.77 1007.00 1007.19 1007.38 1007.61 1007.89 1008.26 1008.69 1009.17 1009.65 1010.09 1010.47 1010.77 1011.00 1011.17 1011.31 1011.46 1011.65 1011.89 1012.18 1012.50 1012.83 1013.15 1013.43 1013.66 1013.82 1013.92 1013.98 1014.00
1004.77 1004.83 1004.86 1004.85 1004.80 1004.76 1004.75 1004.80 1004.93 1005.14 1005.42 1005.73 1006.03 1006.31 1006.54 1006.75 1006.93 1007.14 1007.39 1007.71 1008.10 1008.55 1009.03 1009.51 1009.95 1010.32 1010.61 1010.83 1010.99 1011.12 1011.26 1011.44 1011.68 1011.97 1012.30 1012.65 1012.99 1013.29 1013.53 1013.70 1013.80 1013.83 1013.81
1006.67 1006.68 1006.64 1006.54 1006.39 1006.22 1006.05 1005.92 1005.86 1005.87 1005.95 1006.07 1006.21 1006.36 1006.50 1006.63 1006.78 1006.97 1007.22 1007.53 1007.92 1008.36 1008.83 1009.29 1009.71 1010.06 1010.34 1010.54 1010.70 1010.83 1010.97 1011.15 1011.38 1011.67 1012.00 1012.36 1012.70 1013.01 1013.26 1013.44 1013.53 1013.54 1013.50
1008.58 1008.53 1008.42 1008.25 1008.02 1007.75 1007.47 1007.20 1006.98 1006.82 1006.71 1006.66 1006.64 1006.64 1006.67 1006.72 1006.80 1006.94 1007.15 1007.42 1007.77 1008.18 1008.60 1009.03 1009.42 1009.75 1010.01 1010.21 1010.36 1010.50 1010.65 1010.83 1011.06 1011.35 1011.68 1012.03 1012.37 1012.68 1012.93 1013.10 1013.19 1013.21 1013.14
1010.29 1010.18 1010.01 1009.79 1009.51 1009.19 1008.84 1008.49 1008.17 1007.88 1007.64 1007.44 1007.28 1007.16 1007.07 1007.02 1007.02 1007.09 1007.23 1007.45 1007.73 1008.07 1008.45 1008.82 1009.17 1009.47 1009.73 1009.93 1010.10 1010.25 1010.41 1010.61 1010.84 1011.12 1011.43 1011.76 1012.09 1012.38 1012.63 1012.80 1012.90 1012.92 1012.86
1011.63 1011.45 1011.24 1011.00 1010.70 1010.37 1010.01 1009.64 1009.27 1008.93 1008.60 1008.31 1008.06 1007.84 1007.66 1007.52 1007.45 1007.44 1007.51 1007.65 1007.87 1008.14 1008.45 1008.77 1009.08 1009.37 1009.62 1009.83 1010.02 1010.20 1010.38 1010.58 1010.81 1011.07 1011.36 1011.66 1011.95 1012.23 1012.46 1012.63 1012.73 1012.76 1012.72
1012.54 1012.30 1012.06 1011.80 1011.52 1011.22 1010.89 1010.55 1010.20 1009.84 1009.50 1009.17 1008.87 1008.59 1008.35 1008.16 1008.03 1007.96 1007.97 1008.05 1008.20 1008.41 1008.66 1008.94 1009.22 1009.49 1009.74 1009.97 1010.18 1010.38 1010.58 1010.78 1011.00 1011.24 1011.49 1011.75 1012.00 1012.24 1012.45 1012.62 1012.72 1012.77 1012.75
1013.04 1012.76 1012.49 1012.23 1011.99 1011.73 1011.46 1011.18 1010.87 1010.56 1010.23 1009.91 1009.60 1009.31 1009.06 1008.85 1008.69 1008.60 1008.57 1008.60 1008.71 1008.86 1009.07 1009.30 1009.56 1009.82 1010.07 1010.32 1010.55 1010.76 1010.97 1011.17 1011.37 1011.58 1011.78 1011.99 1012.20 1012.39 1012.57 1012.72 1012.83 1012.89 1012.90
1013.25 1012.92 1012.63 1012.39 1012.17 1011.97 1011.76 1011.54 1011.29 1011.02 1010.73 1010.44 1010.16 1009.90 1009.66 1009.47 1009.33 1009.24 1009.20 1009.22 1009.29 1009.42 1009.59 1009.79 1010.02 1010.26 1010.52 1010.76 1011.00 1011.22 1011.43 1011.62 1011.79 1011.95 1012.11 1012.27 1012.42 1012.58 1012.73 1012.86 1012.98 1013.05 1013.07
1013.30 1012.93 1012.63 1012.40 1012.20 1012.03 1011.85 1011.67 1011.46 1011.23 1010.98 1010.73 1010.49 1010.27 1010.09 1009.94 1009.84 1009.77 1009.76 1009.78 1009.85 1009.95 1010.09 1010.26 1010.46 1010.68 1010.91 1011.15 1011.37 1011.59 1011.78 1011.95 1012.10 1012.22 1012.33 1012.44 1012.56 1012.68 1012.80 1012.93 1013.04 1013.12 1013.16
1013.32 1012.93 1012.62 1012.37 1012.17 1011.99 1011.82 1011.63 1011.43 1011.21 1010.98 1010.76 1010.56 1010.39 1010.26 1010.18 1010.13 1010.12 1010.13 1010.18 1010.24 1010.32 1010.43 1010.56 1010.71 1010.90 1011.09 1011.30 1011.51 1011.70 1011.88 1012.02 1012.14 1012.24 1012.32 1012.40 1012.48 1012.58 1012.70 1012.82 1012.93 1013.02 1013.07
1013.38 1012.99 1012.66 1012.38 1012.15 1011.93 1011.71 1011.48 1011.24 1010.99 1010.75 1010.54 1010.37 1010.24 1010.17 1010.15 1010.17 1010.21 1010.26 1010.32 1010.38 1010.44 1010.51 1010.59 1010.69 1010.82 1010.97 1011.13 1011.31 1011.47 1011.63 1011.76 1011.86 1011.94 1012.01 1012.09 1012.17 1012.26 1012.38 1012.50 1012.63 1012.73 1012.79
1013.51 1013.10 1012.75 1012.43 1012.14 1011.85 1011.54 1011.23 1010.91 1010.61 1010.33 1010.11 1009.95 1009.86 1009.84 1009.87 1009.94 1010.03 1010.11 1010.18 1010.23 1010.26 1010.29 1010.31 1010.35 1010.42 1010.52 1010.64 1010.77 1010.92 1011.06 1011.18 1011.29 1011.37 1011.46 1011.54 1011.63 1011.75 1011.88 1012.02 1012.16 1012.27 1012.34
1013.63 1013.22 1012.83 1012.46 1012.08 1011.69 1011.29 1010.87 1010.46 1010.08 1009.76 1009.51 1009.36 1009.29 1009.31 1009.39 1009.51 1009.63 1009.73 1009.81 1009.84 1009.84 1009.82 1009.79 1009.77 1009.79 1009.84 1009.92 1010.03 1010.16 1010.30 1010.43 1010.55 1010.67 1010.77 1010.88 1011.00 1011.14 1011.29 1011.46 1011.61 1011.73 1011.80
1013.63 1013.21 1012.79 1012.36 1011.90 1011.41 1010.90 1010.38 1009.89 1009.44 1009.08 1008.81 1008.66 1008.62 1008.67 1008.78 1008.93 1009.08 1009.20 1009.27 1009.29 1009.26 1009.20 1009.13 1009.08 1009.06 1009.08 1009.15 1009.25 1009.39 1009.54 1009.70 1009.84 1009.98 1010.12 1010.25 1010.40 1010.56 1010.73 1010.90 1011.06 1011.18 1011.25
1013.44 1013.00 1012.54 1012.05 1011.51 1010.94 1010.35 1009.76 1009.20 1008.72 1008.33 1008.06 1007.92 1007.90 1007.98 1008.12 1008.29 1008.45 1008.58 1008.64 1008.65 1008.61 1008.53 1008.45 1008.39 1008.36 1008.39 1008.47 1008.60 1008.76 1008.94 1009.12 1009.29 1009.45 1009.60 1009.75 1009.91 1010.06 1010.23 1010.40 1010.55 1010.66 1010.72
1013.00 1012.54 1012.04 1011.50 1010.91 1010.29 1009.65 1009.02 1008.44 1007.94 1007.56 1007.31 1007.19 1007.19 1007.29 1007.45 1007.64 1007.80 1007.93 1007.99 1008.00 1007.96 1007.89 1007.82 1007.79 1007.80 1007.87 1007.99 1008.16 1008.36 1008.57 1008.77 1008.96 1009.12 1009.27 1009.40 1009.53 1009.66 1009.80 1009.94 1010.06 1010.15 1010.19
1012.33 1011.85 1011.32 1010.75 1010.13 1009.49 1008.83 1008.21 1007.64 1007.17 1006.81 1006.59 1006.51 1006.53 1006.65 1006.81 1006.99 1007.15 1007.27 1007.33 1007.35 1007.32 1007.29 1007.27 1007.29 1007.37 1007.50 1007.69 1007.91 1008.15 1008.40 1008.61 1008.79 1008.94 1009.04 1009.13 1009.20 1009.28 1009.35 1009.44 1009.51 1009.57 1009.58
1011.54 1011.03 1010.49 1009.90 1009.29 1008.65 1008.02 1007.42 1006.90 1006.47 1006.16 1005.97 1005.91 1005.94 1006.05 1006.21 1006.36 1006.50 1006.60 1006.66 1006.68 1006.69 1006.70 1006.74 1006.84 1006.99 1007.20 1007.46 1007.75 1008.03 1008.29 1008.50 1008.65 1008.74 1008.78 1008.79 1008.78 1008.77 1008.77 1008.78 1008.81 1008.83 1008.82
1010.76 1010.24 1009.70 1009.12 1008.52 1007.91 1007.32 1006.77 1006.30 1005.92 1005.64 1005.48 1005.42 1005.45 1005.53 1005.64 1005.75 1005.85 1005.92 1005.96 1005.98 1006.01 1006.07 1006.17 1006.34 1006.57 1006.85 1007.17 1007.50 1007.81 1008.06 1008.24 1008.34 1008.36 1008.32 1008.23 1008.13 1008.02 1007.94 1007.88 1007.86 1007.85 1007.84
1010.17 1009.65 1009.11 1008.55 1007.97 1007.40 1006.86 1006.36 1005.93 1005.58 1005.32 1005.16 1005.08 1005.07 1005.09 1005.14 1005.18 1005.21 1005.22 1005.23 1005.24 1005.28 1005.36 1005.50 1005.72 1006.00 1006.33 1006.68 1007.02 1007.32 1007.55 1007.69 1007.72 1007.67 1007.54 1007.35 1007.15 1006.96 1006.81 1006.70 1006.65 1006.63 1006.63
Thickness
5825 5824 5821 5817 5812 5806 5801 5797 5793 5791 5788 5784 5780 5776 5774 5774 5773 5772 5769 5767 5765 5763 5761 5760 5757 5756 5754 5752 5751 5748 5746 5745 5745 5741 5739 5742 5746 5745 5744 5744 5744 5744 5744
5817 5817 5816 5814 5807 5802 5799 5796 5792 5789 5787 5783 5781 5778 5776 5774 5773 5771 5768 5766 5764 5762 5761 5757 5756 5754 5752 5750 5749 5747 5743 5743 5744 5739 5734 5731 5733 5738 5743 5742 5741 5742 5742
5813 5811 5811 5809 5805 5801 5798 5796 5793 5789 5786 5784 5780 5778 5775 5773 5770 5767 5765 5764 5763 5760 5758 5757 5754 5752 5750 5747 5746 5745 5742 5739 5741 5741 5735 5728 5723 5729 5735 5738 5739 5739 5739
5815 5811 5809 5806 5804 5802 5800 5796 5792 5788 5785 5783 5779 5774 5769 5766 5766 5766 5764 5763 5761 5759 5757 5755 5753 5750 5748 5746 5744 5744 5742 5739 5736 5738 5739 5736 5733 5726 5724 5730 5735 5737 5736
5813 5810 5808 5806 5805 5803 5799 5795 5790 5786 5783 5781 5778 5773 5770 5768 5766 5765 5762 5760 5759 5758 5756 5754 5751 5749 5746 5745 5743 5742 5741 5739 5736 5735 5735 5734 5733 5732 5725 5721 5726 5730 5733
5811 5808 5807 5805 5802 5801 5798 5793 5787 5783 5781 5778 5776 5772 5769 5766 5763 5760 5757 5756 5756 5755 5754 5752 5749 5747 5745 5743 5741 5740 5739 5737 5736 5735 5734 5731 5728 5727 5725 5721 5721 5722 5727
5806 5803 5800 5797 5797 5795 5792 5789 5784 5779 5778 5776 5773 5770 5767 5765 5761 5758 5756 5754 5752 5750 5749 5749 5747 5745 5743 5742 5740 5738 5736 5735 5733 5732 5731 5731 5730 5729 5727 5722 5720 5720 5723
5801 5797 5795 5793 5793 5791 5788 5785 5780 5776 5774 5772 5769 5767 5765 5762 5760 5757 5755 5752 5751 5749 5748 5746 5744 5742 5741 5740 5737 5736 5734 5732 5730 5730 5729 5728 5729 5728 5726 5722 5718 5714 5716
5793 5790 5789 5789 5788 5785 5783 5781 5777 5773 5771 5769 5766 5763 5761 5758 5757 5755 5753 5751 5748 5747 5745 5743 5741 5739 5737 5736 5734 5732 5731 5729 5728 5727 5726 5726 5726 5726 5725 5723 5721 5713 5707
5786 5784 5782 5782 5783 5781 5778 5777 5773 5769 5766 5764 5761 5759 5756 5755 5753 5750 5748 5747 5745 5743 5741 5739 5736 5735 5733 5732 5730 5729 5728 5726 5724 5724 5722 5722 5722 5721 5721 5720 5719 5716 5711
5781 5779 5777 5774 5774 5775 5773 5770 5767 5763 5760 5759 5756 5754 5751 5750 5748 5745 5744 5742 5740 5738 5736 5734 5732 5730 5728 5727 5725 5724 5724 5721 5720 5720 5719 5717 5717 5716 5716 5716 5714 5713 5710
5776 5774 5772 5770 5768 5767 5766 5762 5760 5758 5755 5753 5751 5749 5747 5745 5742 5740 5738 5737 5735 5733 5732 5730 5727 5725 5724 5723 5721 5719 5718 5716 5715 5714 5713 5712 5713 5711 5711 5710 5708 5707 5707
5769 5767 5764 5761 5759 5757 5756 5755 5753 5752 5750 5748 5744 5742 5740 5738 5736 5734 5733 5731 5730 5728 5726 5724 5722 5720 5719 5717 5716 5714 5713 5712 5710 5709 5707 5707 5706 5704 5705 5704 5703 5701 5702
5760 5758 5754 5751 5750 5747 5744 5746 5746 5745 5744 5741 5738 5735 5733 5732 5731 5729 5727 5725 5724 5722 5720 5719 5717 5716 5714 5712 5710 5709 5707 5706 5705 5704 5703 5702 5700 5698 5698 5697 5696 5695 5693
5750 5749 5745 5743 5741 5739 5738 5738 5739 5738 5737 5734 5731 5728 5727 5726 5724 5722 5720 5719 5717 5716 5715 5713 5711 5710 5707 5705 5703 5703 5701 5699 5698 5697 5697 5696 5695 5693 5692 5691 5689 5688 5686
5741 5741 5739 5736 5732 5731 5730 5729 5730 5729 5728 5726 5723 5721 5720 5718 5716 5714 5713 5711 5710 5709 5708 5706 5704 5702 5700 5697 5696 5695 5694 5693 5691 5690 5690 5690 5689 5688 5686 5685 5684 5682 5680
5732 5731 5730 5728 5726 5724 5723 5723 5720 5721 5719 5718 5716 5714 5712 5710 5708 5707 5704 5703 5702 5701 5700 5699 5697 5694 5691 5690 5688 5687 5686 5686 5685 5684 5683 5684 5684 5682 5681 5679 5678 5677 5676
5723 5722 5721 5720 5719 5718 5716 5714 5714 5712 5711 5710 5708 5706 5705 5703 5701 5699 5697 5695 5694 5693 5692 5692 5690 5688 5686 5684 5682 5680 5680 5679 5679 5679 5678 5677 5676 5675 5674 5674 5673 5672 5671
5716 5714 5714 5713 5711 5709 5708 5707 5706 5705 5703 5701 5699 5698 5698 5696 5694 5691 5689 5688 5687 5686 5685 5685 5684 5682 5680 5677 5675 5673 5674 5673 5673 5673 5673 5672 5670 5669 5668 5667 5666 5665 5664
5707 5707 5706 5704 5702 5701 5700 5698 5697 5696 5694 5693 5692 5691 5691 5689 5687 5685 5683 5682 5680 5679 5679 5679 5679 5677 5675 5672 5670 5667 5668 5668 5668 5667 5667 5665 5664 5662 5661 5660 5660 5658 5658
5699 5699 5697 5694 5693 5693 5692 5689 5688 5686 5686 5686 5685 5684 5683 5681 5680 5678 5676 5674 5673 5673 5672 5672 5672 5671 5669 5666 5664 5661 5662 5662 5662 5662 5661 5660 5658 5656 5655 5654 5654 5653 5652
5688 5688 5686 5684 5685 5685 5684 5681 5679 5679 5679 5678 5677 5675 5674 5673 5672 5670 5668 5667 5666 5664 5663 5663 5663 5664 5662 5660 5657 5656 5655 5655 5655 5655 5656 5654 5652 5650 5649 5648 5648 5647 5645
5679 5679 5678 5677 5677 5677 5676 5673 5673 5673 5671 5669 5668 5667 5665 5664 5663 5662 5660 5659 5658 5657 5656 5656 5655 5655 5655 5653 5651 5649 5649 5648 5648 5648 5647 5646 5645 5644 5643 5643 5642 5641 5640
5671 5671 5670 5668 5668 5669 5669 5668 5668 5666 5664 5661 5660 5659 5657 5655 5654 5654 5653 5652 5650 5650 5649 5648 5647 5647 5647 5645 5643 5642 5641 5640 5640 5640 5639 5639 5639 5638 5638 5638 5637 5637 5636
5663 5662 5660 5659 5659 5661 5661 5662 5661 5659 5656 5654 5652 5651 5650 5648 5646 5644 5643 5643 5640 5641 5640 5640 5640 5638 5636 5633 5632 5632 5634 5634 5633 5632 5633 5633 5633 5633 5633 5634 5634 5633 5632
5655 5653 5652 5652 5651 5652 5652 5653 5653 5652 5648 5646 5645 5644 5643 5642 5639 5637 5635 5632 5632 5631 5631 5630 5629 5628 5627 5625 5626 5626 5627 5626 5625 5625 5627 5629 5629 5629 5629 5628 5628 5627 5625